Weather History for Jackson Hawkins Field, MS

Change the Weather History Date:

Thursday, May 30, 2013

  Actual Average (KJAN) Record (KJAN)
Temperature  
Mean Temperature 80 °F 76 °F  
Max Temperature 87 °F 87 °F 99 °F (1911)
Min Temperature 73 °F 65 °F 45 °F (1984)
Degree Days  
Heating Degree Days 0 0  
Month to date heating degree days 10  
Since 1 July heating degree days 2389  
Cooling Degree Days 14 11  
Month to date cooling degree days 229  
Year to date cooling degree days 347  
Growing Degree Days 30 (Base 50)    
Moisture  
Dew Point 71 °F    
Average Humidity 79    
Maximum Humidity 89    
Minimum Humidity 61    
Precipitation  
Precipitation 0.23 in 0.14 in 2.93 in (1986)
Month to date precipitation 4.24  
Year to date precipitation 23.97  
Sea Level Pressure  
Sea Level Pressure 29.98 in    
Wind  
Wind Speed 10 mph (SE)    
Max Wind Speed 22 mph    
Max Gust Speed 53 mph    
Visibility 9 miles    
Events Rain , Thunderstorm    
T = Trace of Precipitation, MM = Missing Value Source: NWS Daily Summary

Daily Weather History Graph

Daily Weather History Graph

Search for Another Location

Airport:

Trip Planner

Search our weather history database for the weather conditions in past years. The results will help you decide how hot, cold, wet, or windy it might be!

Date:

Astronomy

May. 30, 2013 Rise Set
Actual Time 5:55 AM CDT 8:01 PM CDT
Civil Twilight 5:27 AM CDT 8:29 PM CDT
Nautical Twilight 4:53 AM CDT 9:03 PM CDT
Astronomical Twilight 4:17 AM CDT 9:40 PM CDT
Moon 12:14 AM CDT (5/30) 11:50 AM CDT (5/30)
Length of Visible Light 15h 02m
Length of Day
14h 06m
Waning Gibbous, 62% of the Moon is Illuminated
May 30
Waning Gibbous
May 31
Last Quarter
Jun 8
New
Jun 16
First Quarter
Jun 23
Full

Hourly Weather History & Observations

Time (CDT) Temp. Heat Index Dew Point Humidity Pressure Visibility Wind Dir Wind Speed Gust Speed Precip Events Conditions
12:53 AM 73.9 °F - 69.1 °F 85% 29.97 in 10.0 mi SSE 8.1 mph - N/A   Clear
1:53 AM 73.9 °F - 70.0 °F 87% 29.96 in 10.0 mi SSE 8.1 mph - N/A   Mostly Cloudy
2:09 AM 73.4 °F - 69.8 °F 88% 29.98 in 10.0 mi SSE 10.4 mph - N/A   Scattered Clouds
2:21 AM 73.4 °F - 69.8 °F 88% 29.98 in 10.0 mi SSE 8.1 mph - N/A   Mostly Cloudy
2:53 AM 73.9 °F - 70.0 °F 87% 29.95 in 10.0 mi SE 9.2 mph - N/A   Mostly Cloudy
3:53 AM 73.9 °F - 70.0 °F 87% 29.96 in 10.0 mi SE 8.1 mph - N/A   Overcast
4:53 AM 73.9 °F - 70.0 °F 87% 29.96 in 10.0 mi SE 8.1 mph - N/A   Overcast
5:53 AM 73.9 °F - 70.0 °F 87% 29.98 in 10.0 mi ESE 5.8 mph 29.9 mph N/A   Overcast
6:53 AM 73.9 °F - 70.0 °F 87% 30.00 in 9.0 mi SE 11.5 mph - N/A   Mostly Cloudy
7:53 AM 75.0 °F - 70.0 °F 84% 30.01 in 10.0 mi SE 10.4 mph - N/A   Overcast
8:53 AM 77.0 °F - 70.0 °F 79% 30.01 in 10.0 mi SSE 11.5 mph 16.1 mph N/A   Overcast
9:53 AM 79.0 °F - 70.0 °F 74% 30.01 in 10.0 mi SE 15.0 mph 21.9 mph N/A   Overcast
10:53 AM 81.0 °F 84.4 °F 70.0 °F 69% 30.01 in 10.0 mi SE 13.8 mph 20.7 mph N/A   Overcast
11:11 AM 84.2 °F 89.6 °F 71.6 °F 66% 30.03 in 10.0 mi SE 13.8 mph 24.2 mph N/A   Mostly Cloudy
11:49 AM 82.4 °F 86.3 °F 69.8 °F 66% 30.03 in 10.0 mi South 13.8 mph - N/A   Overcast
11:53 AM 82.0 °F 85.9 °F 70.0 °F 67% 30.01 in 10.0 mi South 13.8 mph - N/A   Overcast
12:53 PM 86.0 °F 91.5 °F 71.1 °F 61% 29.99 in 10.0 mi South 10.4 mph 24.2 mph N/A   Mostly Cloudy
1:53 PM 86.0 °F 91.5 °F 71.1 °F 61% 29.97 in 10.0 mi SSE 21.9 mph 32.2 mph N/A   Mostly Cloudy
2:13 PM 77.0 °F - 69.8 °F 78% 30.00 in 2.0 mi East 15.0 mph 24.2 mph 0.12 in Rain Rain
2:20 PM 75.2 °F - 71.6 °F 89% 30.00 in 1.0 mi East 8.1 mph 24.2 mph 0.22 in Rain Heavy Rain
2:28 PM 77.0 °F - 73.4 °F 89% 29.99 in 4.0 mi East 9.2 mph - 0.23 in Rain Light Rain
2:53 PM 77.0 °F - 73.0 °F 88% 29.97 in 10.0 mi ESE 5.8 mph - 0.23 in   Mostly Cloudy
3:53 PM 82.0 °F 87.4 °F 73.0 °F 74% 29.95 in 10.0 mi ESE 12.7 mph 20.7 mph N/A   Partly Cloudy
4:53 PM 80.1 °F 83.8 °F 72.0 °F 76% 29.94 in 10.0 mi SE 12.7 mph - 0.00 in   Partly Cloudy
5:03 PM 78.8 °F - 71.6 °F 78% 29.95 in 10.0 mi SSE 12.7 mph - N/A Thunderstorm Thunderstorm
5:19 PM 80.6 °F 84.6 °F 71.6 °F 74% 29.95 in 10.0 mi SE 12.7 mph - N/A   Clear
5:37 PM 80.6 °F 84.6 °F 71.6 °F 74% 29.94 in 10.0 mi SE 11.5 mph - N/A Thunderstorm Clear
5:53 PM 80.1 °F 83.8 °F 72.0 °F 76% 29.91 in 10.0 mi SSE 10.4 mph - N/A Thunderstorm Thunderstorm
6:51 PM 78.8 °F - 71.6 °F 78% 29.95 in 10.0 mi South 9.2 mph 52.9 mph N/A   Clear
6:53 PM 79.0 °F - 72.0 °F 79% 29.92 in 10.0 mi West 18.4 mph 52.9 mph N/A   Clear
7:53 PM 78.1 °F - 70.0 °F 76% 29.94 in 10.0 mi SSE 15.0 mph 21.9 mph N/A   Clear
8:53 PM 75.9 °F - 71.1 °F 85% 29.96 in 10.0 mi SSE 8.1 mph - N/A   Clear
9:53 PM 75.0 °F - 71.1 °F 87% 29.99 in 10.0 mi SSE 8.1 mph - N/A   Clear
10:53 PM 75.0 °F - 70.0 °F 84% 29.99 in 10.0 mi SSE 10.4 mph - N/A   Clear
11:53 PM 73.9 °F - 70.0 °F 87% 29.99 in 10.0 mi SSE 9.2 mph - N/A   Clear